Marrakech, Morocco

9:48 AM WEST on August 20, 2017 (GMT +0100)
Marrakech

Weather History for GMMX - October, 2011

Change the Weather History Date:

Tuesday, October 4, 2011

  Actual Average Record
Temperature  
Mean Temperature 83 °F -  
Max Temperature 94 °F 80 °F 99 °F (2015)
Min Temperature 72 °F 57 °F 59 °F (2007)
Cooling Degree Days 18    
Growing Degree Days 33 (Base 50)    
Moisture  
Dew Point 54 °F    
Average Humidity 37    
Maximum Humidity 53    
Minimum Humidity 13    
Precipitation  
Precipitation 0.00 in 0.03 in - ()
Sea Level Pressure  
Sea Level Pressure 30.12 in    
Wind  
Wind Speed 4 mph ()    
Max Wind Speed 10 mph    
Max Gust Speed -    
Visibility 5.2 miles    
Events      
Averages and records for this station are not official NWS values.
T = Trace of Precipitation, MM = Missing Value Source: Averaged Metar Reports

Daily Weather History Graph

Daily Weather History Graph

Search for Another Location

Airport or City:

Trip Planner

Search our weather history database for the weather conditions in past years. The results will help you decide how hot, cold, wet, or windy it might be!

Date:

Astronomy

Oct. 04, 2011 Rise Set
Actual Time 6:27 AM WET 6:13 PM WET
Civil Twilight 6:03 AM WET 6:38 PM WET
Nautical Twilight 5:35 AM WET 7:06 PM WET
Astronomical Twilight 5:06 AM WET 7:34 PM WET
Moon 1:42 PM WET (10/4) No Moon Set
Length of Visible Light 12h 34m
Length of Day
11h 46m
First Quarter, 54% of the Moon is Illuminated
Oct 4
First Quarter
Oct 12
Full
Oct 20
Last Quarter
Oct 26
New
Nov 2
First Quarter

Hourly Weather History & Observations

Time (WET) Temp. Heat Index Dew Point Humidity Pressure Visibility Wind Dir Wind Speed Gust Speed Precip Events Conditions
12:00 AM 78 °F - 54 °F 32% 30.11 in 4 mi ESE 5.8 mph - -   Scattered Clouds
12:00 AM 77.0 °F - 53.6 °F 44% 30.18 in 4.3 mi ESE 5.8 mph - N/A   Mostly Cloudy
12:30 AM 78.8 °F - 53.6 °F 42% 30.18 in 5.0 mi SE 3.5 mph - N/A   Mostly Cloudy
1:00 AM 78.8 °F - 53.6 °F 42% 30.15 in 5.6 mi SE 4.6 mph - N/A   Scattered Clouds
1:30 AM 75.2 °F - 53.6 °F 47% 30.15 in 5.6 mi SE 3.5 mph - N/A   Scattered Clouds
2:00 AM 73.4 °F - 53.6 °F 50% 30.15 in 5.0 mi East 2.3 mph - N/A   Scattered Clouds
2:30 AM 73.4 °F - 53.6 °F 50% 30.15 in 5.6 mi East 4.6 mph - N/A   Scattered Clouds
3:00 AM 74 °F - 54 °F 39% 30.09 in 6 mi Calm Calm - -   Partly Cloudy
3:00 AM 73.4 °F - 55.4 °F 53% 30.15 in 5.6 mi Calm Calm - N/A   Scattered Clouds
3:30 AM 73.4 °F - 55.4 °F 53% 30.15 in 5.6 mi West 3.5 mph - N/A   Scattered Clouds
4:00 AM 73.4 °F - 55.4 °F 53% 30.15 in 5.0 mi Calm Calm - N/A   Scattered Clouds
4:30 AM 73.4 °F - 53.6 °F 50% 30.15 in 4.3 mi Calm Calm - N/A   Scattered Clouds
5:00 AM 73.4 °F - 53.6 °F 50% 30.15 in 4.3 mi WSW 2.3 mph - N/A   Scattered Clouds
5:30 AM 73.4 °F - 53.6 °F 50% 30.15 in 5.6 mi WNW 2.3 mph - N/A   Mostly Cloudy
6:00 AM 74 °F - 54 °F 40% 30.10 in 5 mi SW 1.2 mph - -   Partly Cloudy
6:00 AM 73.4 °F - 53.6 °F 50% 30.15 in 5.0 mi SW 1.2 mph - N/A   Mostly Cloudy
6:30 AM 73.4 °F - 53.6 °F 50% 30.15 in 5.0 mi Calm Calm - N/A   Mostly Cloudy
7:00 AM 75.2 °F - 53.6 °F 47% 30.18 in 5.0 mi Calm Calm - N/A   Mostly Cloudy
7:30 AM 75.2 °F - 53.6 °F 47% 30.18 in 5.0 mi Variable 1.2 mph - N/A   Mostly Cloudy
8:00 AM 77.0 °F - 53.6 °F 44% 30.18 in 5.0 mi Variable 1.2 mph - N/A   Mostly Cloudy
8:30 AM 78.8 °F - 55.4 °F 44% 30.18 in 4.3 mi Calm Calm - N/A   Mostly Cloudy
9:00 AM 81 °F - 54 °F 29% 30.11 in 4 mi Calm Calm - -   Scattered Clouds
9:00 AM 80.6 °F 80.3 °F 53.6 °F 39% 30.18 in 4.3 mi Variable 1.2 mph - N/A   Mostly Cloudy
9:30 AM 82.4 °F 81.4 °F 53.6 °F 37% 30.18 in 3.1 mi NNW 3.5 mph - N/A   Mostly Cloudy
10:00 AM 84.2 °F 82.8 °F 53.6 °F 35% 30.18 in 4.3 mi SW 3.5 mph - N/A   Scattered Clouds
10:30 AM 86.0 °F 84.2 °F 53.6 °F 33% 30.18 in 4.3 mi WNW 4.6 mph - N/A   Scattered Clouds
11:00 AM 87.8 °F 85.7 °F 53.6 °F 31% 30.18 in 3.7 mi Variable 4.6 mph - N/A   Scattered Clouds
11:30 AM 89.6 °F - 51.8 °F 27% 30.15 in 3.7 mi North 4.6 mph - N/A   Scattered Clouds
12:00 PM 90 °F - 52 °F 18% 30.04 in 5 mi NNW 5.8 mph - -   Scattered Clouds
12:00 PM 89.6 °F - 51.8 °F 27% 30.15 in 5.0 mi North 5.8 mph - N/A   Scattered Clouds
12:30 PM 91.4 °F - 51.8 °F 26% 30.12 in 6.2 mi East 4.6 mph - N/A   Scattered Clouds
1:00 PM 91.4 °F - 50.0 °F 24% 30.12 in 6.2 mi Variable 4.6 mph - N/A   Partly Cloudy
1:30 PM 93.2 °F - 50.0 °F 23% 30.12 in 6.2 mi NNW 4.6 mph - N/A   Partly Cloudy
2:00 PM 93.2 °F - 50.0 °F 23% 30.09 in 6.2 mi WNW 6.9 mph - N/A   Partly Cloudy
2:30 PM 93.2 °F - 50.0 °F 23% 30.06 in 6.2 mi Variable 4.6 mph - N/A   Partly Cloudy
3:00 PM 94 °F - 49 °F 13% 29.96 in 6 mi West 3.5 mph - -   Scattered Clouds
3:00 PM 93.2 °F - 50.0 °F 23% 30.06 in 6.2 mi Variable 2.3 mph - N/A   Partly Cloudy
3:30 PM 93.2 °F - 50.0 °F 23% 30.06 in 6.2 mi North 5.8 mph - N/A   Partly Cloudy
4:00 PM 93.2 °F - 50.0 °F 23% 30.06 in 6.2 mi WNW 5.8 mph - N/A   Scattered Clouds
4:30 PM 93.2 °F - 50.0 °F 23% 30.06 in 6.2 mi West 6.9 mph - N/A   Scattered Clouds
5:00 PM 93.2 °F - 50.0 °F 23% 30.06 in 6.2 mi West 10.4 mph - N/A   Scattered Clouds
5:30 PM 93.2 °F - 50.0 °F 23% 30.06 in 6.2 mi West 10.4 mph - N/A   Scattered Clouds
6:00 PM 89.6 °F - 50.0 °F 26% 30.06 in 6.2 mi West 6.9 mph - N/A   Partly Cloudy
6:30 PM 87.8 °F - 50.0 °F 27% 30.06 in 5.0 mi WSW 5.8 mph - N/A   Partly Cloudy
7:00 PM 87.8 °F - 51.8 °F 29% 30.06 in 4.3 mi North 10.4 mph - N/A   Partly Cloudy
7:30 PM 86.0 °F 84.2 °F 53.6 °F 33% 30.09 in 4.3 mi NNW 6.9 mph - N/A   Partly Cloudy
8:00 PM 84.2 °F 83.5 °F 57.2 °F 40% 30.09 in 5.0 mi North 10.4 mph - N/A   Partly Cloudy
8:30 PM 84.2 °F 83.5 °F 57.2 °F 40% 30.12 in 6.2 mi North 10.4 mph - N/A   Partly Cloudy
9:00 PM 82 °F - 59 °F 35% 30.04 in 6 mi North 9.2 mph - -   Scattered Clouds
9:00 PM 82.4 °F 82.5 °F 59.0 °F 45% 30.12 in 6.2 mi North 10.4 mph - N/A   Partly Cloudy
9:30 PM 80.6 °F 81.1 °F 59.0 °F 48% 30.12 in 5.6 mi NNE 6.9 mph - N/A   Partly Cloudy
10:00 PM 80.6 °F 81.1 °F 59.0 °F 48% 30.12 in 5.6 mi NNE 3.5 mph - N/A   Partly Cloudy
10:30 PM 80.6 °F 81.1 °F 59.0 °F 48% 30.12 in 5.6 mi South 3.5 mph - N/A   Partly Cloudy
11:00 PM 80.6 °F 81.1 °F 59.0 °F 48% 30.12 in 5.0 mi SSW 4.6 mph - N/A   Scattered Clouds
11:30 PM 80.6 °F 81.1 °F 59.0 °F 48% 30.12 in 5.0 mi ESE 3.5 mph - N/A   Scattered Clouds